DW7857 Weather Reports


time (UTC)temp
C
wind
direction
speed
KPH
gust
KPH
rain 1hr
cm
rain 24hr
cm
rain mn
cm
humidity
%
barometer
mb
20260507161803 15 194 8.0 12.9 0.00 0.00 0.00 48 1013.2
20260507160903 15 187 11.3 16.1 0.00 0.00 0.00 46 1013.2
20260507160003 16 226 9.7 12.9 0.00 0.00 0.00 46 1013.2
20260507155403 16 205 9.7 17.7 0.00 0.00 0.00 46 1013.2
20260507154503 16 178 8.0 17.7 0.00 0.00 0.00 45 1013.3
20260507153603 16 203 8.0 17.7 0.00 0.00 0.00 44 1013.4
20260507152703 16 186 9.7 12.9 0.00 0.00 0.00 46 1013.2
20260507152014 16 163 9.7 16.1 0.00 0.00 0.00 44 1013.3
20260507151114 16 117 8.0 12.9 0.00 0.00 0.00 47 1013.3
20260507150003 16 186 8.0 12.9 0.00 0.00 0.00 46 1013.4
20260507145403 16 169 9.7 16.1 0.00 0.00 0.00 45 1013.5
20260507144503 16 196 8.0 12.9 0.00 0.00 0.00 43 1013.6
20260507143603 16 188 11.3 19.3 0.00 0.00 0.00 42 1013.5
20260507142703 16 217 12.9 19.3 0.00 0.00 0.00 43 1013.8
20260507141803 16 216 11.3 17.7 0.00 0.00 0.00 42 1013.6
20260507140903 15 194 14.5 17.7 0.00 0.00 0.00 41 1013.7
20260507140003 17 226 8.0 16.1 0.00 0.00 0.00 40 1013.8
20260507135403 17 232 9.7 22.5 0.00 0.00 0.00 42 1013.8
20260507134714 16 194 9.7 22.5 0.00 0.00 0.00 41 1013.7
20260507133603 16 157 9.7 17.7 0.00 0.00 0.00 41 1013.7
20260507132703 17 184 8.0 14.5 0.00 0.00 0.00 40 1013.8
20260507131803 16 192 8.0 17.7 0.00 0.00 0.00 41 1013.6
20260507130903 17 183 9.7 14.5 0.00 0.00 0.00 40 1013.6
20260507130003 17 216 11.3 17.7 0.00 0.00 0.00 40 1013.7
20260507125614 17 178 9.7 14.5 0.00 0.00 0.00 40 1013.7
20260507124503 16 149 11.3 12.9 0.00 0.00 0.00 42 1013.6
20260507123603 16 168 9.7 14.5 0.00 0.00 0.00 41 1013.8
20260507122705 16 182 11.3 14.5 0.00 0.00 0.00 41 1013.8
20260507121803 17 186 11.3 16.1 0.00 0.00 0.00 42 1013.6
20260507120903 16 196 9.7 17.7 0.00 0.00 0.00 44 1013.9
20260507120004 16 181 9.7 17.7 0.00 0.00 0.00 45 1014.1
20260507115403 16 155 9.7 14.5 0.00 0.00 0.00 46 1013.8
20260507114503 16 181 11.3 19.3 0.00 0.00 0.00 48 1014.0
20260507113603 16 203 11.3 19.3 0.00 0.00 0.00 49 1014.0
20260507112703 16 225 11.3 16.1 0.00 0.00 0.00 48 1013.9
20260507111803 16 204 9.7 14.5 0.00 0.00 0.00 47 1013.9
20260507110903 16 173 11.3 16.1 0.00 0.00 0.00 47 1014.0
20260507110003 16 203 11.3 16.1 0.00 0.00 0.00 49 1014.1
20260507105403 15 166 11.3 16.1 0.00 0.00 0.00 50 1014.0
20260507104713 16 139 11.3 17.7 0.00 0.00 0.00 51 1014.1
20260507103603 15 175 11.3 19.3 0.00 0.00 0.00 52 1014.3
20260507102703 15 192 11.3 16.1 0.00 0.00 0.00 50 1014.0
20260507101803 15 203 11.3 16.1 0.00 0.00 0.00 50 1014.0
20260507100903 15 186 9.7 12.9 0.00 0.00 0.00 52 1014.0
20260507100003 15 217 9.7 14.5 0.00 0.00 0.00 55 1014.2
20260507095403 14 196 9.7 14.5 0.00 0.00 0.00 54 1013.8
20260507094503 14 200 11.3 14.5 0.00 0.00 0.00 56 1014.0
20260507093603 14 189 11.3 14.5 0.00 0.00 0.00 57 1013.9
20260507092703 15 208 8.0 11.3 0.00 0.00 0.00 58 1013.8
20260507091803 15 128 6.4 8.0 0.00 0.00 0.00 59 1013.6
20260507090903 15 88 6.4 9.7 0.00 0.00 0.00 61 1013.8
20260507090004 13 200 6.4 9.7 0.00 0.00 0.00 62 1013.8
20260507085403 13 178 6.4 8.0 0.00 0.00 0.00 67 1013.8
20260507084714 13 161 6.4 12.9 0.00 0.00 0.00 69 1013.8
20260507083603 13 189 9.7 14.5 0.00 0.00 0.00 70 1013.8
20260507082703 13 112 6.4 8.0 0.00 0.00 0.00 71 1013.8
20260507081803 12 219 6.4 9.7 0.00 0.00 0.00 71 1014.0
20260507080903 12 211 6.4 8.0 0.00 0.00 0.00 71 1014.1
20260507080004 12 195 6.4 9.7 0.00 0.00 0.00 71 1013.6
20260507075403 12 204 4.8 6.4 0.00 0.00 0.00 72 1013.7
20260507074713 12 220 4.8 6.4 0.00 0.00 0.00 75 1013.7
20260507073603 11 170 4.8 8.0 0.00 0.00 0.00 76 1013.6
20260507072703 11 225 4.8 8.0 0.00 0.00 0.00 75 1013.9
20260507071803 11 250 4.8 8.0 0.00 0.00 0.00 75 1013.7
20260507070903 11 137 3.2 9.7 0.00 0.00 0.00 75 1013.6
20260507070006 10 212 1.6 3.2 0.00 0.00 0.00 75 1013.4
20260507065403 10 301 1.6 3.2 0.00 0.00 0.00 75 1013.5
20260507064503 10 227 1.6 3.2 0.00 0.00 0.00 75 1013.5
20260507063603 10 223 1.6 3.2 0.00 0.00 0.00 75 1013.3
20260507062703 9 210 1.6 3.2 0.00 0.00 0.00 75 1013.2
20260507062013 9 192 3.2 4.8 0.00 0.00 0.00 75 1013.4
20260507060903 9 179 1.6 3.2 0.00 0.00 0.00 75 1013.6
20260507060003 8 205 3.2 6.4 0.00 0.00 0.00 75 1013.6
20260507055403 8 225 3.2 3.2 0.00 0.00 0.00 76 1013.2
20260506184504 13 90 1.6 3.2 0.00 0.00 0.00 52 1016.8
20260506183814 13 92 1.6 3.2 0.00 0.00 0.00 50 1016.8
20260506182703 13 71 1.6 3.2 0.00 0.00 0.00 50 1016.7
20260506182013 13 95 1.6 3.2 0.00 0.00 0.00 50 1016.5
20260506180903 13 47 3.2 4.8 0.00 0.00 0.00 49 1016.6
20260506180004 13 32 4.8 6.4 0.00 0.00 0.00 47 1016.5
20260506175613 13 61 4.8 4.8 0.00 0.00 0.00 48 1016.7
20260506174503 13 71 3.2 3.2 0.00 0.00 0.00 48 1016.4
20260506173603 13 83 3.2 6.4 0.00 0.00 0.00 48 1016.3
20260506172913 13 87 3.2 6.4 0.00 0.00 0.00 47 1016.4
20260506171803 14 72 3.2 4.8 0.00 0.00 0.00 46 1016.2
20260506170903 14 93 3.2 4.8 0.00 0.00 0.00 46 1016.3
20260506170003 14 65 3.2 4.8 0.00 0.00 0.00 46 1016.2
20260506165613 14 68 3.2 4.8 0.00 0.00 0.00 46 1016.1
20260506164714 14 101 3.2 6.4 0.00 0.00 0.00 45 1016.3
20260506163603 14 70 4.8 6.4 0.00 0.00 0.00 45 1016.3
20260506162703 14 88 4.8 8.0 0.00 0.00 0.00 46 1016.4